683  
ASUS41 KCLE 250512  
RWRCLE  
OHIO REGIONAL WEATHER ROUNDUP  
NATIONAL WEATHER SERVICE WILMINGTON, OH  
100 AM EDT MON MAY 25 2020  
 
NOTE: "FAIR" INDICATES FEW OR NO CLOUDS BELOW 12,000 FEET WITH NO  
SIGNIFICANT WEATHER AND/OR S TO VISIBILITY
.  
 
OHZ001>008-015>018-024>027-034-035-043-044-250600-  
NORTHWEST OHIO  
 
CITY SKY/WX TMP DP RH WIND PRES REMARKS
 
DEFIANCE FAIR 76 66 71 SW9 29.98R  
FINDLAY FAIR 74 64 71 SW9 29.99S  
TOLEDO EXPRESS FAIR 77 63 61 SW9 29.97S  
TOLEDO EXEC FAIR 72 65 78 SW5 29.98R  
LIMA FAIR 73 62 68 SW6 30.01R  

 
 
OHZ009>014-019>023-028>033-038-089-250600-  
NORTHEAST OHIO  
 
CITY SKY/WX TMP DP RH WIND PRES REMARKS
 
CLE-HOPKINS FAIR 71 64 78 S6 30.02R  
CLE-LAKEFRONT FAIR 76 63 64 S9 29.98S  
CUY CO. ARPT FAIR 73 64 71 S5 30.02S  
LORAIN-ELYRIA FAIR 69 60 73 S3 30.01R  
ASHTABULA FAIR 72 65 78 S8 30.03R  
AKRON-CANTON MOCLDY 71 63 75 S3 30.04R  
WOOSTER FAIR 66 64 93 CALM 30.03S  
MANSFIELD FAIR 72 64 76 SW3 30.03R  
YOUNGSTOWN FAIR 71 62 73 SE8 30.04S  

 
 
OHZ042-051>053-060>062-070>072-077>081-250600-  
SOUTHWEST OHIO  
 
CITY SKY/WX TMP DP RH WIND PRES REMARKS
 
CINC-COVINGTON CLOUDY 68 64 87 CALM 30.03S  
CINC-LUNKEN FAIR 66 65 96 CALM 30.04R  
HAMILTON FAIR 68 65 90 SE3 30.04S  
DAYTON MOCLDY 70 61 73 S7 30.04S  
WRIGHT-PAT AFB MOCLDY 69 61 77 CALM 30.02F  
DAYTON GENERAL FAIR 68 61 78 CALM 30.03R  
WILMINGTON FAIR 67 64 90 CALM 30.04S  

 
 
OHZ036-037-039>041-045>050-054>059-063>069-073>076-082>088-250600-  
CENTRAL AND SOUTHEAST OHIO  
 
CITY SKY/WX TMP DP RH WIND PRES REMARKS
 
COLUMBUS CLOUDY 72 65 78 CALM 30.02S  
OSU AIRPORT FAIR 72 65 78 SW3 30.03R  
BOLTON FIELD FAIR 70 66 88 CALM 30.04S  
RICKENBACK AFB FAIR 71 66 84 CALM 30.03R  
NEWARK FAIR 73 66 78 S5 30.02S  
MARION FAIR 74 63 68 SW8 30.02R  
LANCASTER FAIR 71 66 84 CALM 30.04S  
ZANESVILLE FAIR 71 66 84 CALM 30.04R  
NEW PHILLY FAIR 70 66 87 E5 30.03S  

 
 
 
CLICK HERE TO GO TO PREVIOUS BULLETINS.

The Nexlab OH Page
The Nexlab PA Page Main Text Page